Find Kosmos-2530

NORAD ID: 43751 Int'l Des: 2018-097 Owner: VVKOV Country: RU operational
LEOCIRCULARPOLAR

Live Position

Loading 3D Globe...

About Kosmos-2530

Description loading...

Upcoming Passes

Passes for default location (London). Set your location on the main map for personalized predictions.

Altitude History

Loading altitude history...

Two-Line Element Set

1 43751U 18097A 26106.31313894 .00000177 00000-0 12079-2 0 9998
2 43751 82.5102 260.6836 0019997 168.4573 191.6969 12.42880383334606
Epoch: Apr 16, 2026 • Age: 6 hours

Current Status

Altitude 1510.2 km
Velocity 7.10 km/s
Sub-Earth Point 17.67°N, 142.88°W
Launch Date Nov 30, 2018
Age 7.3 years
Type other

Technical Details

Classification Payload
Mass 280.00 kg
Dry Mass 280.00 kg
Total Mass 280.00 kg
Length 1.60 m
Diameter 0.80 m
Span 7.00 m
Shape Cyl + Ant
Manufacturer RESH
Bus Type Strela-3M
Phase Status In Orbit
Owner/State VVKOV/RU

Most Searched